Flag for U.S.A. Weather past 2 weeks in Moreno Valley, California, U.S.A.

Now
72 °F

Passing clouds.


Feels Like: 76 °F
Forecast: 67 / 90 °F
Wind: 3 mph from Northwest

Location: Riverside / March Air Force Base

Current Time: Jul 1, 2015 at 11:11:01 PM

Latest Report: Jul 1, 2015 at 10:58 PM


Visibility: 10 mi

Pressure: 29.95 "Hg

Humidity: 58%

Dew point: 57 °F

Location of Moreno ValleyLocation

Historic Weather in Moreno Valley — Graph

°F

Moreno Valley temperature yesterday

Maximum temperature yesterday: 100 °F (at 1:58 PM)
Minimum temperature yesterday: 69 °F (at 5:58 AM)
Average temperature yesterday: 81 °F

Past Weeks' High & Low Weather Summary

 TemperatureHumidityPressure
High100 °F (Jun 30, 1:58 PM)100% (Jun 17, 4:58 AM)29.99 "Hg (Jun 17, 4:58 AM)
Low56 °F (Jun 17, 5:58 AM)4% (Jun 24, 1:58 PM)29.77 "Hg (Jun 20, 3:58 AM)
Average79 °F40%29.88 "Hg
* Reported Jun 16 9:58 PM — Jul 1 9:58 PM, Moreno Valley, Weather by CustomWeather, © 2015

Note: Actual official high and low records may vary slightly from our data, if they occured in-between our weather recording intervals... More about our weather records

Advertising

Moreno Valley weather history for previous 24 hours

 ConditionsComfort  
Time TempWeatherWind HumidityBarometerVisibility
9:58 PM
Wed, Jul 1
75 °FPassing clouds.3 mph52%29.94 "Hg10 mi
8:58 PM77 °FPassing clouds.9 mph48%29.92 "Hg10 mi
7:58 PM81 °FScattered clouds.8 mph36%29.90 "Hg10 mi
6:58 PM84 °FPassing clouds.7 mph33%29.89 "Hg10 mi
5:58 PM85 °FPassing clouds.13 mph31%29.87 "Hg10 mi
4:58 PM87 °FScattered clouds.16 mph39%29.85 "Hg10 mi
3:58 PM89 °FPassing clouds.10 mph34%29.86 "Hg10 mi
2:58 PM90 °FPassing clouds.6 mph35%29.87 "Hg10 mi
1:58 PM88 °FScattered clouds.6 mph38%29.89 "Hg10 mi
12:58 PM86 °FPartly sunny.8 mph43%29.88 "Hg10 mi
11:58 AM85 °FPartly sunny.8 mph43%29.90 "Hg10 mi
10:58 AM84 °FPartly sunny.No wind51%29.91 "Hg10 mi
9:58 AM82 °FPartly sunny.1 mph54%29.93 "Hg10 mi
8:58 AM80 °FScattered clouds.5 mph56%29.97 "Hg10 mi
7:58 AM76 °FPassing clouds.3 mph67%29.95 "Hg10 mi
6:58 AM73 °FPassing clouds.1 mph75%29.93 "Hg10 mi
5:58 AM72 °FPassing clouds.3 mph70%29.89 "Hg10 mi
4:58 AM71 °FPartly cloudy.3 mph82%29.89 "Hg10 mi
3:58 AM72 °FPartly cloudy.2 mph79%29.89 "Hg10 mi
2:58 AM76 °FThunderstorms. Overcast.6 mph49%29.90 "Hg10 mi
1:58 AM73 °FPassing clouds.No wind50%29.85 "Hg10 mi
12:58 AM74 °FClear.5 mph59%29.83 "Hg10 mi
11:58 PM
Tue, Jun 30
73 °FClear.No wind58%29.84 "Hg10 mi
Weather by CustomWeather, © 2015

See weather overviewHow to use our weather pages